Regional Weather Roundup
Issued by NWS

Home | Current Version | Previous Version | Text Only | Print | Product List | Glossary On
Versions: 1 2 3 4 5 6 7 8 9 10 11 12 13 14 15 16 17 18 19 20 21 22 23 24 25 26 27 28 29 30 31 32 33 34 35 36 37 38 39 40 41 42 43 44 45 46 47 48 49 50
012
ASUS44 KEWX 250202
RWRTX
SOUTH TEXAS REGIONAL WEATHER ROUNDUP
NATIONAL WEATHER SERVICE AUSTIN/SAN ANTONIO TX
900 PM CDT SAT SEP 24 2016

NOTE: "FAIR" INDICATED FEW OR NO CLOUDS BELOW 12,000 FEET WITH NO
SIGNIFICANT WEATHER AND/OR OBSTRUCTIONS TO VISIBILITY.

* - THESE STATIONS ARE NOT NWS OR FAA STATIONS...AND ARE NOT SUBJECT
    TO NWS AND FAA QUALITY CONTROL.

TXZ171-172-183>190-250300-
TEXAS HILL COUNTRY AND EDWARDS PLATEAU

CITY           SKY/WX    TMP DP  RH WIND       PRES   REMARKS
JUNCTION       CLOUDY    84  65  52 SE10      29.93R
*LLANO         CLOUDY    81  77  89 SE7       29.94R
BURNET         CLOUDY    79  71  76 VRB6      29.96R
*HORSESHOE BAY CLOUDY    80  73  79 SE8       29.93R
*KERRVILLE     PTCLDY    79  72  79 SE8       29.95R
*FREDERICKSBRG CLOUDY    77  67  71 CALM      29.96R
*ROCKSPRINGS   CLOUDY    81  66  61 CALM      29.98R
*BOERNE STAGE  CLEAR     77  72  83 SE6       29.96R
*CASTROVILLE   CLEAR     83  70  64 E12G18    29.90R
HONDO          PTCLDY    85  71  63 E13       29.90R HX  90
*UVALDE        PTCLDY    83  71  67 E8        29.88R
DEL RIO        HVY RAIN  70  70 100 E10       29.93R FOG
LAUGHLIN AFB   TSTM      72  70  94 W21G37    29.92R VSB 3/4
CARRIZO SPRGS  PTCLDY    88  66  48 E9G17     29.82R HX  90
*EAGLE PASS    NOT AVBL
$$

TXZ173-191>194-202-209-217>225-228-250300-
CENTRAL AND SOUTH CENTRAL TEXAS

CITY           SKY/WX    TMP DP  RH WIND       PRES   REMARKS
GEORGETOWN     CLEAR     79  73  83 E3        29.92R
AUSTIN/BERGSTM PTCLDY    80  75  84 SE9       29.91R
AUSTIN/MABRY   MOCLDY    81  75  82 SE6       29.93R
*AUSTIN/EXEC   PTCLDY    82  77  83 SE8       29.92R HX  91
*LAGO VISTA    PTCLDY    80  73  80 SE7       29.95R
SAN MARCOS     CLEAR     79  73  83 SE13      29.94R
NEW BRAUNFELS  CLEAR     80  74  81 SE10      29.90R
RANDOLPH AFB   CLEAR     79  76  90 SE13      29.92R
PT SAN ANTONIO CLEAR     82  74  77 E15G22    29.89R
SAN ANTONIO    PTCLDY    81  73  76 E13       29.92R
STINSON FIELD  CLEAR     83  75  77 SE16      29.89R HX  90
*PLEASANTON    CLEAR     83  70  62 E6        29.89R
*LA GRANGE     CLOUDY    81  77  86 SE3       29.90F
*GIDDINGS      CLOUDY    80  73  79 S5        29.96S
*GONZALES      CLOUDY    80  75  86 SE7       29.90S
$$

TXZ163>164-176>182-195>201-210>213-226-227-235-250300-
SOUTHEAST TEXAS

CITY           SKY/WX    TMP DP  RH WIND       PRES   REMARKS
COLLEGE STN    CLOUDY    78  75  90 SE10      29.92F
*BRYAN         CLOUDY    76  76 100 SE8       29.93F
*CALDWELL      NOT AVBL
*CROCKETT      NOT AVBL
*BRENHAM       CLOUDY    80  74  83 SE6       29.93S
HUNTSVILLE     CLOUDY    77  74  90 SE5       29.94F
CONROE         PTCLDY    76  74  93 E3          N/A
HOUSTON BUSH   MOCLDY    77  76  96 E5        29.94R
HOUSTON HOBBY  MOCLDY    79  76  90 CALM      29.94R
*HOUSTON SW AP PTCLDY    75  75  98 CALM      29.94S
PEARLAND       PTCLDY    82  76  81 S5        29.95R
HOUSTON HOOKS  PTCLDY    79  75  87 SE5       29.93F
ELLINGTON FLD  MOCLDY    79  77  94 SE5       29.96S
SUGAR LAND     PTCLDY    77  73  87 SE3       29.93S
*HOUSTON EXEC  PTCLDY    77  75  94 SE6       29.94F
*CLEVELAND MUN PTCLDY    75  73  93 CALM      29.95F
*WHARTON       PTCLDY    78  76  94 CALM      29.93S
*COLUMBUS      FAIR      77  76  96 E5        29.93R
*EAGLE LAKE    CLOUDY    78  76  95 SE5       29.92S
$$

TXZ214>216-236>238-250300-
THE UPPER TEXAS COAST

CITY           SKY/WX    TMP DP  RH WIND       PRES   REMARKS
*ORANGE        MOCLDY    81  72  73 SE5       29.98S
PORT ARTHUR    MOCLDY    79  74  84 SE5       29.95R
GALVESTON      CLOUDY    82  75  79 SE12      29.94F
ANGLETON       CLOUDY    77  75  93 NE3       29.93S
*BAY CITY      PTCLDY    76  74  92 NE5       29.93R
PALACIOS       PTCLDY    80  76  87 E6        29.91S
$$

TXZ229>234-239>247-250300-
TEXAS COASTAL BEND AND RIO GRANDE PLAINS

CITY           SKY/WX    TMP DP  RH WIND       PRES   REMARKS
VICTORIA       PTCLDY    76  74  93 SE6       29.92R
*BEEVILLE      PTCLDY    82  77  84 SE10      29.90R HX  91
ROCKPORT       PTCLDY    84  76  76 SE15      29.89R HX  93
*PORT ARANSAS  PTCLDY    85  77  75 SE14G21   29.89S HX  95
*PORT LAVACA   PTCLDY    82  79  89 SE9       29.91S FOG     HX  93
*INGLESIDE     CLEAR     85  77  76 SE9       29.89R HX  96
CORPUS CHRISTI PTCLDY    85  78  80 SE13      29.89R HX  96
CORPUS NAS     PTCLDY    86  79  79 SE16      29.89R HX  99
*ROBSTOWN      PTCLDY    84  77  79 SE13      29.89R HX  94
ALICE          CLEAR     83  75  77 SE13      29.88R HX  90
KINGSVILLE NAS CLEAR     83  77  82 SE12      29.88R HX  92
COTULLA        PTCLDY    90  71  53 SE22G29   29.85R HX  96
*FAITH RANCH     N/A    N/A N/A N/A MISG        N/A
LAREDO         CLEAR     91  68  46 SE15      29.83R HX  95
$$

TXZ248>255-250300-
DEEP SOUTH TEXAS

CITY           SKY/WX    TMP DP  RH WIND       PRES   REMARKS
BROWNSVILLE    CLEAR     85  75  72 SE12      29.89R HX  93
PORT ISABEL    CLEAR     85  75  72 SE15      29.88R HX  93
*SOUTH PADRE     N/A     86  77  74 SE18      29.89R HX  97
HARLINGEN      CLEAR     85  75  72 SE15      29.87R HX  93
*HEBBRONVILLE  CLEAR     87  71  60 SE14G20   29.87R HX  92
MCALLEN        CLEAR     88  73  61 SE18G26   29.86R HX  95
*WESLACO       CLEAR     85  73  67 SE13G22   29.86R HX  92
FALFURRIAS     CLEAR     85  73  68 SE10G16   29.86R HX  92
EDINBURG       CLEAR     87  71  59 SE12      29.87R HX  93
*ZAPATA        CLEAR     90  66  44 SE9G21    29.83R HX  92
$$

TXZ213>215-236>238-242>244-246-247-251-254-255-250300-
CMAN STATIONS

STATION/POSITION TIME  TEMP    WIND        PRES    WAVE
                       AIR SEA DIR/SP/G            HT/PER
                 (UTC) (F)     (DEG/KT/KT) (MB)    (FT/S)
SABINE PASS      0100   83 87  150/  9/ 14 1015.5
SEA RIM ST PARK  0100   83     140/ 10/ 14 1014.7
NORTH JETTY/GLS  0100   83 86  180/ 13/ 14   N/A
EAGLE POINT      0100   83 85  170/ 13/ 14 1013.7
MORGANS POINT    0100   83 86  130/  6/  9 1013.6
MISSION/ARANSAS  0100   86                 1012.0
PORT ARANSAS     0100   86 87  120/ 20/ 22 1011.8
MALAQUITE BEACH  0100   86 87  110/ 19/ 22 1011.7
BAFFIN BAY       0100   86 88  130/ 17/ 20 1011.3
PORT ISABEL      0100   86 88  150/ 14/ 17 1011.6
$$

GMZ080-GMZ150>470-250300-
OFFSHORE BUOY REPORTS

STATION/POSITION TIME  TEMP    WIND        PRES    WAVE
                       AIR SEA DIR/SP/G            HT/PER
                 (UTC) (F)     (DEG/KT/KT) (MB)    (FT/S)
20 E GALVESTON   0050   82 86  160/ 12/ 14 1013.9    2/ 5
90 E PT ARANSAS  0050   85 86  120/ 14/ 16 1012.6    3/ 5
35 NE PT MANSFLD 0050   86 86  150/ 17/ 19 1011.4    3/ 5
200 E PT ISABEL  0050   86 87  150/  6/  8 1012.7    2/ 5
$$




USA.gov is the U.S. government's official web portal to all federal, state and local government web resources and services.